Regional Weather Roundup
Issued by NWS Little Rock, AR

Home | Current Version | Previous Version | Text Only | Print | Product List | Glossary On
Versions: 1 2 3 4 5 6 7 8 9 10 11 12 13 14 15 16 17 18 19 20 21 22 23 24 25 26 27 28 29 30 31 32 33 34 35 36 37 38 39 40 41 42 43 44 45 46 47 48 49 50
000
ASUS44 KLZK 252305
RWRLZK

WEATHER ROUNDUP FOR ARKANSAS
NATIONAL WEATHER SERVICE LITTLE ROCK AR
600 PM CDT MON MAY 25 2015

NOTE: "FAIR" INDICATES FEW OR NO CLOUDS BELOW 12,000 FEET WITH NO
SIGNIFICANT WEATHER AND/OR OBSTRUCTIONS TO VISIBILITY.

ARZ001-003-010-029-260000-
NORTHWEST ARKANSAS

CITY           SKY/WX    TMP DP  RH WIND       PRES   REMARKS
FAYETTEVILLE   CLOUDY    74  66  76 SE10      29.87F
FORT SMITH     CLOUDY    78  66  66 E13       29.79F THUNDER
HARRISON       MOSUNNY   76  65  68 S10       29.93F
BENTONVILLE    CLOUDY    75  63  64 SE10      29.87F
ROGERS         CLOUDY    76  65  68 SE7       29.88F
SILOAM SPGS    CLOUDY    73  63  68 S6        29.87F
HIGHFILL       CLOUDY    76  66  71 S8        29.86F
SPRINGDALE     PTSUNNY   77  64  65 S12G23    29.90F
$$

ARZ004-005-016-260000-
NORTH CENTRAL ARKANSAS

CITY           SKY/WX    TMP DP  RH WIND       PRES   REMARKS
BATESVILLE     MOSUNNY   81  68  65 SE9       29.96R
FLIPPIN        MOSUNNY   81  64  57 S5        29.91S
MTN HOME       MOSUNNY   80  66  62 S8        29.92S
$$

ARZ040-041-260000-
WEST CENTRAL ARKANSAS

CITY           SKY/WX    TMP DP  RH WIND       PRES   REMARKS
MENA           CLOUDY    73  70  88 SE5       29.85F
MOUNT IDA      CLOUDY    71  68  90 CALM      29.86F
$$

ARZ009-017-025-026-028-260000-
NORTHEAST ARKANSAS

CITY           SKY/WX    TMP DP  RH WIND       PRES   REMARKS
CORNING          N/A     79  68  69 SE12      29.97S
JONESBORO      MOSUNNY   79  69  71 S12       29.96F
NEWPORT        MOSUNNY   82  70  67 S12       29.96S HX  86
WALNUT RIDGE   MOSUNNY   81  70  69 S13       29.96S
BLYTHEVILLE    MOSUNNY   80  71  74 SE8       29.97F
$$

ARZ022-023-033-042-044-260000-
CENTRAL ARKANSAS

CITY           SKY/WX    TMP DP  RH WIND       PRES   REMARKS
LITTLE ROCK    PTSUNNY   83  67  58 SE9       29.92S HX  85
N LITTLE ROCK  PTSUNNY   82  71  69 SE12G17   29.92S HX  86
JACKSONVILLE   MOSUNNY   83  70  65 E8        29.92F HX  87
SEARCY         PTSUNNY   80  70  71 S9        29.97R
HOT SPRINGS    CLOUDY    80  68  66 SE10      29.89F
RUSSELLVILLE     N/A     79  69  71 MISG      29.89F
CLINTON        FAIR      79  72  78 CALM      29.94F
$$

ARZ036-260000-
EAST ARKANSAS

CITY           SKY/WX    TMP DP  RH WIND       PRES   REMARKS
WEST MEMPHIS   SUNNY     82  71  69 SE14      29.95F HX  86
$$

ARZ050-053-066-070-073-260000-
SOUTHWEST ARKANSAS

CITY           SKY/WX    TMP DP  RH WIND       PRES   REMARKS
ARKADELPHIA    FAIR      79  77  94 CALM      29.89F
CAMDEN         CLOUDY    82  70  65 NE7       29.89F HX  86
TEXARKANA      LGT RAIN  79  71  76 S9        29.89R
EL DORADO      CLOUDY    82  70  66 SE8       29.91F HX  86
$$

ARZ056-057-069-260000-
SOUTHEAST ARKANSAS

CITY           SKY/WX    TMP DP  RH WIND       PRES   REMARKS
PINE BLUFF     MOSUNNY   83  70  64 SE15      29.93R HX  87
STUTTGART      PTSUNNY   82  70  65 MISG      29.95R HX  86
MONTICELLO     MOSUNNY   84  70  62 SE10      29.93F HX  88

$$





USA.gov is the U.S. government's official web portal to all federal, state and local government web resources and services.